N0RWU Weather Reports


Display with metric or nautical units.
time (UTC)temp
F
wind
direction
speed
MPH
gust
MPH
rain 1hr
in
rain 24hr
in
rain mn
in
humidity
%
barometer
mb
20260508092107 45 155 0.0 0.0 0.00 0.00 0.00 56 1000.9
20260508091108 46 155 0.0 0.0 0.00 0.00 0.00 53 1000.9
20260508090107 47 155 0.0 0.0 0.00 0.00 0.00 51 1000.8
20260508085107 47 174 0.0 1.0 0.00 0.00 0.00 50 1000.9
20260508084108 47 176 0.0 0.0 0.00 0.00 0.00 50 1000.7
20260508083107 47 141 0.0 1.0 0.00 0.00 0.00 52 1000.8
20260508082107 46 173 0.0 0.0 0.00 0.00 0.00 55 1000.8
20260508081108 47 172 1.0 2.0 0.00 0.00 0.00 52 1000.8
20260508080107 44 172 0.0 0.0 0.00 0.00 0.00 57 1000.9
20260508075108 42 226 0.0 0.0 0.00 0.00 0.00 61 1001.0
20260508073107 44 225 0.0 0.0 0.00 0.00 0.00 58 1001.2
20260508072107 44 226 0.0 0.0 0.00 0.00 0.00 57 1001.5
20260508071107 45 226 0.0 0.0 0.00 0.00 0.00 55 1001.4
20260508070107 46 225 0.0 0.0 0.00 0.00 0.00 53 1001.2
20260508064107 50 168 0.0 1.0 0.00 0.00 0.00 44 1001.3
20260508063107 50 156 3.0 4.0 0.00 0.00 0.00 43 1001.3
20260508062108 51 150 2.0 2.0 0.00 0.00 0.00 43 1001.4
20260508061107 51 143 1.0 2.0 0.00 0.00 0.00 43 1001.4
20260508055108 51 148 1.0 2.0 0.00 0.00 0.00 45 1001.5
20260508054107 50 161 1.0 2.0 0.00 0.00 0.00 47 1001.5
20260508053107 50 139 0.0 0.0 0.00 0.00 0.00 48 1001.6
20260508052107 50 153 0.0 0.0 0.00 0.00 0.00 47 1001.7
20260508051108 50 119 2.0 2.0 0.00 0.00 0.00 48 1001.7
20260508050107 46 118 0.0 0.0 0.00 0.00 0.00 56 1001.9
20260508043107 50 84 0.0 0.0 0.00 0.00 0.00 50 1001.8
20260508041108 49 112 0.0 0.0 0.00 0.00 0.00 53 1001.8
20260508040107 50 142 0.0 0.0 0.00 0.00 0.00 49 1001.8
20260508035107 50 164 0.0 0.0 0.00 0.00 0.00 51 1001.6
20260508033107 52 164 0.0 0.0 0.00 0.00 0.00 46 1001.7
20260508032108 54 155 0.0 0.0 0.00 0.00 0.00 43 1001.7
20260508031107 56 152 0.0 0.0 0.00 0.00 0.00 40 1001.5
20260508030107 56 153 1.0 1.0 0.00 0.00 0.00 39 1001.7
20260508025108 56 54 0.0 0.0 0.00 0.00 0.00 37 1001.5
20260508024107 57 319 0.0 0.0 0.00 0.00 0.00 37 1001.4
20260508023107 58 293 0.0 0.0 0.00 0.00 0.00 36 1001.3
20260508022107 59 349 1.0 2.0 0.00 0.00 0.00 35 1001.1
20260508021108 59 90 0.0 1.0 0.00 0.00 0.00 35 1000.9
20260508020107 60 110 1.0 2.0 0.00 0.00 0.00 34 1000.8
20260508015108 60 279 0.0 0.0 0.00 0.00 0.00 34 1000.7
20260508014107 61 291 1.0 2.0 0.00 0.00 0.00 34 1000.4
20260508013107 62 283 0.0 2.0 0.00 0.00 0.00 32 1000.3
20260508012107 63 270 0.0 0.0 0.00 0.00 0.00 31 1000.2
20260508011107 65 344 1.0 1.0 0.00 0.00 0.00 31 1000.0
20260508010107 66 278 3.0 4.0 0.00 0.00 0.00 29 999.9
20260508005107 68 226 2.0 3.0 0.00 0.00 0.00 28 999.8
20260508004107 69 262 2.0 2.0 0.00 0.00 0.00 28 999.7
20260508002107 70 249 4.0 6.0 0.00 0.00 0.00 27 999.7
20260508001107 72 229 2.0 2.0 0.00 0.00 0.00 28 999.6
20260508000108 71 263 3.0 3.0 0.00 0.00 0.00 28 999.7
20260507235107 71 259 6.0 7.0 0.00 0.00 0.00 27 999.7
20260507234107 71 275 4.0 4.0 0.00 0.00 0.00 27 999.7
20260507233107 71 217 3.0 4.0 0.00 0.00 0.00 28 999.6
20260507232107 69 248 3.0 4.0 0.00 0.00 0.00 29 999.8
20260507231107 75 204 0.0 2.0 0.00 0.00 0.00 26 999.6
20260507230107 72 267 1.0 2.0 0.00 0.00 0.00 28 999.7
20260507225108 70 240 4.0 5.0 0.00 0.00 0.00 29 999.7
20260507223548 72 86 3.0 4.0 0.00 0.00 0.00 29 1000.0
20260507222548 72 254 5.0 7.0 0.00 0.00 0.00 30 999.9
20260507221547 70 252 4.0 4.0 0.00 0.00 0.00 32 1000.0
20260507220548 68 244 4.0 5.0 0.00 0.00 0.00 33 1000.1
20260507215547 67 259 5.0 6.0 0.00 0.00 0.00 32 1000.2
20260507214547 70 252 8.0 13.0 0.00 0.00 0.00 31 1000.2
20260507213548 72 276 6.0 7.0 0.00 0.00 0.00 31 1000.3
20260507211547 70 212 7.0 9.0 0.00 0.00 0.00 30 1000.5
20260507210548 69 110 5.0 6.0 0.00 0.00 0.00 32 1000.6
20260507205547 68 243 7.0 8.0 0.00 0.00 0.00 31 1000.8
20260507204548 69 257 7.0 9.0 0.00 0.00 0.00 32 1000.9
20260507203547 68 253 11.0 13.0 0.00 0.00 0.00 32 1000.8
20260507202547 70 259 3.0 4.0 0.00 0.00 0.00 31 1001.1
20260507195547 69 257 5.0 6.0 0.00 0.00 0.00 33 1001.6
20260507194547 67 148 2.0 3.0 0.00 0.00 0.00 34 1001.9
20260507193548 65 254 2.0 3.0 0.00 0.00 0.00 37 1001.9
20260507192547 66 175 7.0 8.0 0.00 0.00 0.00 36 1001.9
20260507191548 67 225 4.0 4.0 0.00 0.00 0.00 35 1001.9
20260507190548 68 234 2.0 2.0 0.00 0.00 0.00 36 1002.0
20260507185547 67 234 4.0 4.0 0.00 0.00 0.00 39 1002.0
20260507184548 68 153 4.0 4.0 0.00 0.00 0.00 37 1001.9
20260507183548 66 230 2.0 2.0 0.00 0.00 0.00 38 1002.1
20260507182547 66 229 6.0 8.0 0.00 0.00 0.00 41 1002.1
20260507181548 64 178 4.0 4.0 0.00 0.00 0.00 43 1002.3
20260507180548 64 183 3.0 4.0 0.00 0.00 0.00 45 1002.4
20260507175547 64 259 4.0 4.0 0.00 0.00 0.00 49 1002.5
20260507174548 62 190 4.0 4.0 0.00 0.00 0.00 52 1002.6
20260507173548 63 164 4.0 6.0 0.00 0.00 0.00 52 1002.7
20260507172548 63 244 2.0 4.0 0.00 0.00 0.00 52 1002.8
20260507171547 63 175 2.0 3.0 0.00 0.00 0.00 52 1002.8
20260507170548 62 181 5.0 7.0 0.00 0.00 0.00 46 1002.9
20260507165547 62 211 3.0 4.0 0.00 0.00 0.00 50 1003.0
20260507164547 61 187 6.0 7.0 0.00 0.00 0.00 50 1003.1
20260507163548 62 248 4.0 5.0 0.00 0.00 0.00 52 1003.1
20260507161548 60 184 7.0 10.0 0.00 0.00 0.00 53 1003.0
20260507160548 59 165 3.0 4.0 0.00 0.00 0.00 54 1003.1
20260507154547 57 167 5.0 7.0 0.00 0.00 0.00 56 1003.1
20260507153547 57 171 9.0 11.0 0.00 0.00 0.00 57 1003.1
20260507152548 56 250 6.0 10.0 0.00 0.00 0.00 56 1003.3
20260507151548 59 166 3.0 4.0 0.00 0.00 0.00 52 1003.0
20260507150547 58 193 4.0 7.0 0.00 0.00 0.00 53 1003.0
20260507145547 56 168 5.0 7.0 0.00 0.00 0.00 56 1002.9
20260507143548 54 184 4.0 4.0 0.00 0.00 0.00 60 1003.2
20260507142547 54 195 4.0 4.0 0.00 0.00 0.00 58 1003.3
20260507140548 53 248 5.0 6.0 0.00 0.00 0.00 57 1003.3
20260507134548 51 220 5.0 7.0 0.00 0.00 0.00 58 1003.8
20260507132548 50 217 8.0 10.0 0.00 0.00 0.00 59 1003.6
20260507131548 50 213 5.0 6.0 0.00 0.00 0.00 59 1003.5
20260507130547 51 218 6.0 7.0 0.00 0.00 0.00 56 1003.3
20260507125548 53 277 3.0 4.0 0.00 0.00 0.00 52 1003.5
20260507123547 51 329 3.0 3.0 0.00 0.00 0.00 54 1003.3
20260507121548 47 246 5.0 7.0 0.00 0.00 0.00 57 1003.3
20260507120547 47 258 2.0 2.0 0.00 0.00 0.00 57 1003.4
20260507115549 47 259 0.0 1.0 0.00 0.00 0.00 56 1003.5
20260507114547 47 160 3.0 4.0 0.00 0.00 0.00 55 1003.0
20260507113548 46 257 0.0 1.0 0.00 0.00 0.00 55 1003.0
20260507112548 46 156 1.0 2.0 0.00 0.00 0.00 58 1002.9
20260507110547 45 252 4.0 6.0 0.00 0.00 0.00 60 1003.1
20260507105548 44 166 2.0 3.0 0.00 0.00 0.00 60 1003.1
20260507104548 44 159 0.0 0.0 0.00 0.00 0.00 62 1003.0
20260507103548 44 147 1.0 2.0 0.00 0.00 0.00 62 1003.3
20260507102547 44 167 0.0 0.0 0.00 0.00 0.00 60 1003.4
20260507101548 45 150 0.0 0.0 0.00 0.00 0.00 59 1003.5
20260507100547 45 172 2.0 3.0 0.00 0.00 0.00 56 1003.5
20260507094547 45 180 2.0 2.0 0.00 0.00 0.00 55 1003.7